Ashtabula, OH

10:15 AM EST on December 15, 2017 (GMT -0500)
Ashtabula County

Weather History for KHZY - December, 2013

Change the Weather History Date:

Monday, December 9, 2013

  Actual Average (KGKJ) Record (KGKJ)
Temperature  
Mean Temperature 30 °F -  
Max Temperature 34 °F 40 °F 65 °F (1966)
Min Temperature 26 °F 25 °F 2 °F (1977)
Degree Days  
Heating Degree Days 35    
Moisture  
Dew Point 24 °F    
Average Humidity 75    
Maximum Humidity 93    
Minimum Humidity 60    
Precipitation  
Precipitation 0.13 in - - ()
Sea Level Pressure  
Sea Level Pressure 30.01 in    
Wind  
Wind Speed 11 mph (SW)    
Max Wind Speed 25 mph    
Max Gust Speed 33 mph    
Visibility 9 miles    
Events      
Averages and records for this station are not official NWS values.
T = Trace of Precipitation, MM = Missing Value Source: NWS Daily Summary

Daily Weather History Graph

Daily Weather History Graph

Search for Another Location

Airport or City:

Trip Planner

Search our weather history database for the weather conditions in past years. The results will help you decide how hot, cold, wet, or windy it might be!

Date:

Astronomy

Dec. 09, 2013 Rise Set
Actual Time 7:38 AM EST 4:51 PM EST
Civil Twilight 7:07 AM EST 5:23 PM EST
Nautical Twilight 6:32 AM EST 5:58 PM EST
Astronomical Twilight 5:58 AM EST 6:32 PM EST
Moon 12:25 PM EST (12/9) No Moon Set
Length of Visible Light 10h 16m
Length of Day
9h 13m
Waxing Crescent, 51% of the Moon is Illuminated
Dec 9
Waxing Crescent
Dec 17
Full
Dec 25
Last Quarter
Jan 1
New
Jan 7
First Quarter

Hourly Weather History & Observations

Time (EST) Temp. Windchill Dew Point Humidity Pressure Visibility Wind Dir Wind Speed Gust Speed Precip Events Conditions
12:53 AM 28.9 °F 22.8 °F 24.1 °F 82% 30.03 in 7.0 mi SE 5.8 mph - N/A   Overcast
1:53 AM 30.0 °F 23.2 °F 26.1 °F 85% 29.99 in 4.0 mi SSE 6.9 mph - N/A   Overcast
2:49 AM 30.2 °F 21.9 °F 28.4 °F 93% 29.93 in 2.5 mi South 9.2 mph - 0.00 in   Overcast
2:53 AM 30.9 °F 22.8 °F 28.0 °F 89% 29.96 in 2.5 mi South 9.2 mph - 0.00 in   Overcast
3:06 AM 30.2 °F 22.6 °F 28.4 °F 93% 29.93 in 4.0 mi South 8.1 mph - N/A   Overcast
3:53 AM 32.0 °F 23.0 °F 28.9 °F 88% 29.94 in 9.0 mi South 11.5 mph - N/A   Overcast
4:53 AM 33.1 °F 25.5 °F 30.0 °F 89% 29.94 in 3.0 mi South 9.2 mph - N/A   Overcast
5:53 AM 34.0 °F 25.5 °F 30.0 °F 85% 29.93 in 10.0 mi SSW 11.5 mph - N/A   Overcast
6:53 AM 34.0 °F 26.6 °F 30.0 °F 85% 29.94 in 10.0 mi SSW 9.2 mph - N/A   Overcast
7:13 AM 33.8 °F 25.8 °F 30.2 °F 87% 29.91 in 10.0 mi SSW 10.4 mph - N/A   Overcast
7:53 AM 34.0 °F 26.0 °F 30.0 °F 85% 29.95 in 10.0 mi SSW 10.4 mph - 0.01 in   Overcast
8:53 AM 34.0 °F 25.5 °F 30.0 °F 85% 29.97 in 10.0 mi SW 11.5 mph - 0.04 in   Overcast
9:09 AM 33.8 °F 26.4 °F 30.2 °F 87% 29.95 in 9.0 mi SW 9.2 mph - 0.02 in   Overcast
9:18 AM 33.8 °F 25.8 °F 30.2 °F 87% 29.95 in 10.0 mi SW 10.4 mph - 0.02 in   Overcast
9:53 AM 34.0 °F 25.5 °F 30.0 °F 85% 29.99 in 10.0 mi SW 11.5 mph - 0.04 in   Overcast
10:16 AM 33.8 °F 25.3 °F 28.4 °F 81% 29.96 in 10.0 mi WSW 11.5 mph - 0.01 in   Overcast
10:48 AM 33.8 °F 23.5 °F 28.4 °F 81% 29.98 in 10.0 mi WSW 16.1 mph 24.2 mph 0.02 in   Overcast
10:53 AM 34.0 °F 24.2 °F 27.0 °F 75% 30.00 in 10.0 mi WSW 15.0 mph 24.2 mph 0.02 in   Overcast
11:53 AM 33.1 °F 20.1 °F 25.0 °F 72% 30.03 in 10.0 mi West 25.3 mph 33.4 mph 0.02 in   Overcast
12:53 PM 33.1 °F 23.0 °F 23.0 °F 66% 30.02 in 10.0 mi WSW 15.0 mph 27.6 mph N/A   Overcast
1:20 PM 33.8 °F 21.6 °F 21.2 °F 60% 29.99 in 10.0 mi WSW 23.0 mph 27.6 mph N/A   Overcast
1:40 PM 32.0 °F 20.5 °F 21.2 °F 64% 29.99 in 10.0 mi West 18.4 mph 29.9 mph N/A   Overcast
1:53 PM 32.0 °F 21.2 °F 21.9 °F 66% 30.01 in 10.0 mi West 16.1 mph 28.8 mph N/A   Overcast
2:09 PM 33.8 °F 24.3 °F 21.2 °F 60% 29.98 in 10.0 mi WSW 13.8 mph 21.9 mph N/A   Overcast
2:53 PM 33.1 °F 22.2 °F 21.9 °F 64% 30.02 in 10.0 mi WSW 17.3 mph - N/A   Overcast
3:53 PM 32.0 °F 23.6 °F 21.9 °F 66% 30.05 in 10.0 mi WSW 10.4 mph 19.6 mph N/A   Overcast
4:35 PM 32.0 °F 20.8 °F 21.2 °F 64% 30.04 in 10.0 mi SW 17.3 mph 26.5 mph N/A   Overcast
4:53 PM 30.9 °F 20.2 °F 19.9 °F 64% 30.07 in 10.0 mi WSW 15.0 mph 21.9 mph N/A   Overcast
5:15 PM 30.2 °F 20.2 °F 19.4 °F 64% 30.05 in 10.0 mi WSW 12.7 mph 23.0 mph N/A   Overcast
5:41 PM 30.2 °F 18.1 °F 19.4 °F 64% 30.06 in 10.0 mi WSW 18.4 mph 24.2 mph N/A   Overcast
5:53 PM 30.9 °F 19.1 °F 19.9 °F 64% 30.09 in 10.0 mi WSW 18.4 mph 28.8 mph N/A   Overcast
6:53 PM 30.0 °F 19.1 °F 19.9 °F 66% 30.10 in 10.0 mi SW 15.0 mph 23.0 mph N/A   Overcast
7:53 PM 30.0 °F 20.5 °F 19.9 °F 66% 30.11 in 10.0 mi WSW 11.5 mph 20.7 mph N/A   Overcast
8:53 PM 28.0 °F 14.9 °F 18.0 °F 66% 30.12 in 10.0 mi SW 19.6 mph 27.6 mph N/A   Overcast
9:37 PM 26.6 °F 14.3 °F 17.6 °F 69% 30.09 in 10.0 mi WSW 16.1 mph 26.5 mph N/A   Partly Cloudy
9:53 PM 27.0 °F 14.3 °F 16.0 °F 63% 30.11 in 10.0 mi West 17.3 mph 27.6 mph N/A   Partly Cloudy
10:53 PM 26.1 °F 15.0 °F 16.0 °F 66% 30.10 in 10.0 mi WSW 12.7 mph - N/A   Mostly Cloudy
11:53 PM 26.1 °F 16.2 °F 15.1 °F 63% 30.11 in 10.0 mi WSW 10.4 mph - N/A   Mostly Cloudy